Location: Chaumontel
(49.1247°N, 2.4324°E)
Time: 18:52:18
(UTC+00:00)

IRIDIUM 114 - Pass Details

Date: 03 February 2023
Orbit: 776 x 779 km, 86.4° (Epoch: 26 March)

Event Time Altitude Azimuth Distance (km) Brightness Sun altitude
Rises 18:34:33 0° 356° (N) 3,278 7.6 -17.3°
Reaches altitude 10° 18:36:55 10° 358° (N) 2,345 6.8 -17.7°
Maximum altitude 18:42:11 82° 86° (E) 793 4.2 -18.5°
Drops below altitude 10° 18:47:24 10° 175° (S) 2,325 6.8 -19.4°
Sets 18:49:44 0° 176° (S) 3,248 7.5 -19.8°
